| time (UTC) | temp F | wind direction | speed knots | gust knots | rain 1hr in | rain 24hr in | rain mn in | humidity % | barometer mb |
| 20260505184043 | 59 | 0 | 0.0 | 7.8 | 0.00 | 0.26 | 0.11 | 84 | 1016.2 |
| 20260505183539 | 59 | 0 | 0.9 | 8.7 | 0.00 | 0.26 | 0.11 | 85 | 1016.2 |
| 20260505183058 | 58 | 298 | 2.6 | 8.7 | 0.00 | 0.26 | 0.11 | 86 | 1016.3 |
| 20260505182539 | 58 | 307 | 1.7 | 8.7 | 0.00 | 0.26 | 0.11 | 87 | 1016.3 |
| 20260505182042 | 58 | 303 | 0.9 | 7.8 | 0.00 | 0.26 | 0.11 | 88 | 1016.3 |
| 20260505181549 | 58 | 0 | 0.0 | 9.6 | 0.00 | 0.26 | 0.11 | 90 | 1016.2 |
| 20260505181042 | 57 | 0 | 3.5 | 9.6 | 0.00 | 0.26 | 0.11 | 90 | 1016.1 |
| 20260505180539 | 57 | 0 | 1.7 | 8.7 | 0.00 | 0.26 | 0.11 | 91 | 1016.1 |
| 20260505180054 | 57 | 0 | 0.0 | 0.0 | 0.00 | 0.26 | 0.11 | 92 | 1016.1 |
| 20260505175540 | 56 | 0 | 0.0 | 0.0 | 0.00 | 0.26 | 0.11 | 93 | 1016.0 |
| 20260505175040 | 56 | 0 | 0.0 | 7.8 | 0.00 | 0.26 | 0.11 | 93 | 1016.0 |
| 20260505174551 | 56 | 0 | 0.9 | 7.8 | 0.00 | 0.26 | 0.11 | 94 | 1016.0 |
| 20260505174041 | 55 | 295 | 0.9 | 7.8 | 0.00 | 0.26 | 0.11 | 94 | 1015.9 |
| 20260505173539 | 55 | 0 | 0.0 | 7.8 | 0.00 | 0.26 | 0.11 | 95 | 1015.8 |
| 20260505173057 | 55 | 309 | 0.0 | 0.0 | 0.00 | 0.26 | 0.11 | 95 | 1015.7 |
| 20260505172545 | 55 | 0 | 0.0 | 0.0 | 0.00 | 0.26 | 0.11 | 95 | 1015.8 |
| 20260505172039 | 55 | 0 | 0.0 | 0.0 | 0.00 | 0.26 | 0.11 | 95 | 1015.9 |
| 20260505171550 | 55 | 0 | 0.0 | 0.0 | 0.00 | 0.26 | 0.11 | 96 | 1015.8 |
| 20260505171040 | 55 | 0 | 0.0 | 0.0 | 0.00 | 0.26 | 0.11 | 96 | 1015.8 |
| 20260505170542 | 55 | 0 | 0.0 | 0.0 | 0.00 | 0.26 | 0.11 | 96 | 1016.0 |
| 20260505170047 | 55 | 0 | 0.0 | 0.0 | 0.00 | 0.26 | 0.11 | 96 | 1015.9 |
| 20260505165542 | 54 | 0 | 0.0 | 0.0 | 0.00 | 0.26 | 0.11 | 96 | 1015.9 |
| 20260505165041 | 54 | 0 | 0.0 | 0.0 | 0.00 | 0.26 | 0.11 | 96 | 1016.0 |
| 20260505164600 | 54 | 0 | 0.0 | 0.0 | 0.00 | 0.26 | 0.11 | 96 | 1015.9 |
| 20260505164041 | 54 | 0 | 0.0 | 0.0 | 0.00 | 0.26 | 0.11 | 96 | 1015.9 |
| 20260505163541 | 54 | 0 | 0.0 | 0.0 | 0.00 | 0.26 | 0.11 | 96 | 1015.9 |
| 20260505163056 | 54 | 0 | 0.0 | 0.0 | 0.00 | 0.26 | 0.11 | 96 | 1016.0 |
| 20260505162545 | 54 | 0 | 0.0 | 0.0 | 0.00 | 0.26 | 0.11 | 96 | 1016.0 |
| 20260505162042 | 54 | 0 | 0.0 | 0.0 | 0.00 | 0.26 | 0.11 | 96 | 1016.0 |
| 20260505161551 | 54 | 0 | 0.0 | 0.0 | 0.00 | 0.26 | 0.11 | 96 | 1015.9 |
| 20260505161042 | 53 | 0 | 0.0 | 0.0 | 0.00 | 0.26 | 0.11 | 96 | 1015.8 |
| 20260505160542 | 53 | 0 | 0.0 | 0.0 | 0.00 | 0.26 | 0.11 | 96 | 1015.9 |
| 20260505153107 | 53 | 0 | 0.0 | 0.0 | 0.00 | 0.26 | 0.11 | 96 | 1015.5 |
| 20260505152542 | 53 | 0 | 0.0 | 0.0 | 0.00 | 0.26 | 0.11 | 96 | 1015.5 |
| 20260505152041 | 53 | 0 | 0.0 | 0.0 | 0.00 | 0.26 | 0.11 | 96 | 1015.4 |
| 20260505151554 | 53 | 0 | 0.0 | 0.0 | 0.00 | 0.26 | 0.11 | 96 | 1015.4 |
| 20260505151041 | 53 | 0 | 0.0 | 0.0 | 0.00 | 0.26 | 0.11 | 96 | 1015.4 |
| 20260505150542 | 53 | 0 | 0.0 | 0.0 | 0.00 | 0.26 | 0.11 | 96 | 1015.4 |
| 20260505140543 | 52 | 0 | 0.0 | 0.0 | 0.00 | 0.26 | 0.11 | 96 | 1015.1 |
| 20260505124549 | 51 | 0 | 0.0 | 0.0 | 0.00 | 0.26 | 0.11 | 96 | 1014.5 |
| 20260505124041 | 51 | 0 | 0.0 | 0.0 | 0.00 | 0.26 | 0.11 | 96 | 1014.5 |
| 20260505123541 | 51 | 0 | 0.0 | 0.0 | 0.00 | 0.26 | 0.11 | 96 | 1014.5 |
| 20260505123045 | 51 | 0 | 0.0 | 0.0 | 0.00 | 0.26 | 0.11 | 96 | 1014.6 |
| 20260505122544 | 51 | 0 | 0.0 | 0.0 | 0.00 | 0.26 | 0.11 | 96 | 1014.6 |
| 20260505122041 | 51 | 0 | 0.0 | 0.0 | 0.00 | 0.26 | 0.11 | 96 | 1014.7 |
| 20260505121550 | 51 | 0 | 0.0 | 0.0 | 0.00 | 0.26 | 0.11 | 96 | 1014.6 |
| 20260505121041 | 51 | 0 | 0.0 | 0.0 | 0.00 | 0.26 | 0.11 | 96 | 1014.7 |
| 20260505120541 | 51 | 0 | 0.0 | 0.0 | 0.00 | 0.26 | 0.11 | 96 | 1014.6 |
| 20260505120047 | 51 | 0 | 0.0 | 0.0 | 0.00 | 0.26 | 0.11 | 96 | 1014.7 |
| 20260505115544 | 51 | 0 | 0.0 | 0.0 | 0.00 | 0.26 | 0.11 | 96 | 1014.7 |
| 20260505115043 | 51 | 0 | 0.0 | 0.0 | 0.00 | 0.26 | 0.11 | 96 | 1014.6 |
| 20260505114548 | 51 | 0 | 0.0 | 0.0 | 0.00 | 0.26 | 0.11 | 96 | 1014.6 |
| 20260505114042 | 51 | 0 | 0.0 | 0.0 | 0.00 | 0.26 | 0.11 | 95 | 1014.6 |
| 20260505113541 | 51 | 0 | 0.0 | 0.0 | 0.00 | 0.26 | 0.11 | 95 | 1014.6 |
| 20260505113046 | 51 | 0 | 0.0 | 0.0 | 0.00 | 0.26 | 0.11 | 95 | 1014.6 |
| 20260505112541 | 51 | 0 | 0.0 | 0.0 | 0.00 | 0.26 | 0.11 | 95 | 1014.6 |
| 20260505112041 | 51 | 0 | 0.0 | 0.0 | 0.00 | 0.26 | 0.11 | 95 | 1014.6 |
| 20260505111559 | 51 | 0 | 0.0 | 0.0 | 0.00 | 0.26 | 0.11 | 95 | 1014.5 |
| 20260505111039 | 51 | 0 | 0.0 | 0.0 | 0.00 | 0.26 | 0.11 | 95 | 1014.7 |
| 20260505110540 | 51 | 0 | 0.0 | 0.0 | 0.00 | 0.26 | 0.11 | 95 | 1014.9 |
| 20260505102039 | 51 | 0 | 0.0 | 0.0 | 0.00 | 0.26 | 0.11 | 95 | 1015.0 |
| 20260505101547 | 51 | 0 | 0.0 | 0.0 | 0.00 | 0.26 | 0.11 | 95 | 1014.7 |
| 20260505101042 | 51 | 0 | 0.0 | 0.0 | 0.00 | 0.26 | 0.11 | 95 | 1014.8 |
| 20260505100542 | 51 | 0 | 0.0 | 0.0 | 0.00 | 0.26 | 0.11 | 95 | 1015.0 |
| 20260505100054 | 51 | 0 | 0.0 | 0.0 | 0.01 | 0.26 | 0.11 | 95 | 1014.7 |
| 20260505095543 | 51 | 0 | 0.0 | 0.0 | 0.02 | 0.26 | 0.11 | 95 | 1014.8 |
| 20260505095040 | 51 | 0 | 0.0 | 0.0 | 0.02 | 0.26 | 0.11 | 95 | 1014.8 |
| 20260505094551 | 51 | 0 | 0.0 | 0.0 | 0.02 | 0.26 | 0.11 | 95 | 1014.9 |
| 20260505094041 | 51 | 0 | 0.0 | 0.0 | 0.02 | 0.26 | 0.11 | 95 | 1015.0 |
| 20260505093539 | 51 | 0 | 0.0 | 0.0 | 0.02 | 0.26 | 0.11 | 95 | 1015.0 |
| 20260505093050 | 51 | 0 | 0.0 | 0.0 | 0.02 | 0.26 | 0.11 | 95 | 1015.0 |
| 20260505092540 | 51 | 0 | 0.0 | 0.0 | 0.02 | 0.26 | 0.11 | 95 | 1015.2 |
| 20260505092039 | 51 | 0 | 0.0 | 0.0 | 0.02 | 0.26 | 0.11 | 95 | 1015.2 |
| 20260505091557 | 52 | 0 | 0.0 | 0.0 | 0.02 | 0.26 | 0.11 | 95 | 1015.2 |
| 20260505091042 | 52 | 0 | 0.0 | 0.0 | 0.02 | 0.26 | 0.11 | 95 | 1015.2 |
| 20260505090542 | 52 | 0 | 0.0 | 0.0 | 0.01 | 0.25 | 0.10 | 95 | 1015.2 |
| 20260505090059 | 52 | 0 | 0.0 | 0.0 | 0.01 | 0.25 | 0.10 | 95 | 1015.1 |
| 20260505085542 | 52 | 0 | 0.0 | 0.0 | 0.01 | 0.24 | 0.09 | 95 | 1015.4 |
| 20260505085039 | 52 | 0 | 0.0 | 0.0 | 0.02 | 0.24 | 0.09 | 95 | 1015.3 |
| 20260505084551 | 51 | 0 | 0.0 | 0.0 | 0.03 | 0.24 | 0.09 | 95 | 1015.5 |
| 20260505084041 | 51 | 0 | 0.0 | 0.0 | 0.04 | 0.24 | 0.09 | 94 | 1015.4 |
| 20260505083538 | 51 | 0 | 0.0 | 0.0 | 0.05 | 0.24 | 0.09 | 94 | 1015.6 |
| 20260505083049 | 51 | 0 | 0.0 | 0.0 | 0.06 | 0.24 | 0.09 | 94 | 1015.6 |
| 20260505082542 | 51 | 0 | 0.0 | 0.0 | 0.08 | 0.24 | 0.09 | 94 | 1015.5 |
| 20260505082038 | 51 | 0 | 0.0 | 0.0 | 0.08 | 0.24 | 0.09 | 94 | 1015.5 |
| 20260505081559 | 51 | 0 | 0.0 | 0.0 | 0.08 | 0.24 | 0.09 | 94 | 1015.6 |
| 20260505081038 | 51 | 0 | 0.0 | 0.0 | 0.08 | 0.24 | 0.09 | 94 | 1015.5 |
| 20260505080541 | 51 | 0 | 0.0 | 0.0 | 0.09 | 0.24 | 0.09 | 94 | 1015.6 |
| 20260505080050 | 51 | 0 | 0.0 | 0.0 | 0.09 | 0.24 | 0.09 | 94 | 1015.6 |
| 20260505075541 | 51 | 0 | 0.0 | 0.0 | 0.08 | 0.23 | 0.08 | 94 | 1015.7 |
| 20260505075038 | 51 | 0 | 0.0 | 0.0 | 0.07 | 0.22 | 0.07 | 94 | 1015.7 |
| 20260505074607 | 51 | 0 | 0.0 | 0.0 | 0.07 | 0.21 | 0.06 | 94 | 1015.7 |
| 20260505074038 | 51 | 0 | 0.0 | 0.0 | 0.06 | 0.20 | 0.05 | 94 | 1015.8 |
| 20260505073538 | 51 | 0 | 0.0 | 0.0 | 0.05 | 0.19 | 0.04 | 94 | 1015.8 |
| 20260505073053 | 51 | 0 | 0.0 | 0.0 | 0.04 | 0.18 | 0.03 | 94 | 1015.4 |
| 20260505072543 | 51 | 0 | 0.0 | 0.0 | 0.02 | 0.16 | 0.01 | 93 | 1015.7 |
| 20260505072041 | 51 | 0 | 0.0 | 0.0 | 0.02 | 0.16 | 0.01 | 93 | 1015.8 |
| 20260505071542 | 51 | 0 | 0.0 | 0.0 | 0.02 | 0.16 | 0.01 | 93 | 1015.8 |
| 20260505071041 | 51 | 0 | 0.0 | 0.0 | 0.02 | 0.16 | 0.01 | 93 | 1015.8 |
| 20260505070538 | 51 | 0 | 0.0 | 0.0 | 0.01 | 0.15 | 0.00 | 93 | 1016.0 |
| 20260505070052 | 51 | 0 | 0.0 | 0.0 | 0.02 | 0.15 | 0.00 | 93 | 1016.1 |
| 20260505065538 | 51 | 0 | 0.0 | 0.0 | 0.02 | 0.15 | 0.15 | 93 | 1015.9 |
| 20260505065040 | 51 | 0 | 0.0 | 0.0 | 0.03 | 0.15 | 0.15 | 93 | 1015.9 |
| 20260505064552 | 51 | 0 | 0.0 | 0.0 | 0.03 | 0.14 | 0.14 | 93 | 1016.0 |
| 20260505064040 | 51 | 0 | 0.0 | 0.0 | 0.04 | 0.14 | 0.14 | 93 | 1015.8 |
| 20260505063538 | 51 | 0 | 0.0 | 0.0 | 0.04 | 0.14 | 0.14 | 93 | 1015.9 |
| 20260505063055 | 51 | 0 | 0.0 | 0.0 | 0.04 | 0.14 | 0.14 | 93 | 1015.8 |
| 20260505062538 | 51 | 0 | 0.0 | 0.0 | 0.05 | 0.14 | 0.14 | 93 | 1015.8 |
| 20260505062040 | 51 | 0 | 0.0 | 0.0 | 0.06 | 0.14 | 0.14 | 92 | 1015.7 |
| 20260505061615 | 51 | 0 | 0.0 | 0.0 | 0.06 | 0.14 | 0.14 | 92 | 1015.6 |
| 20260505061037 | 51 | 0 | 0.0 | 0.0 | 0.06 | 0.14 | 0.14 | 92 | 1015.5 |
| 20260505060543 | 51 | 0 | 0.0 | 0.0 | 0.07 | 0.14 | 0.14 | 92 | 1015.5 |
| 20260505060053 | 51 | 0 | 0.0 | 0.0 | 0.06 | 0.13 | 0.13 | 92 | 1015.7 |
| 20260505055541 | 51 | 0 | 0.0 | 0.0 | 0.05 | 0.12 | 0.12 | 92 | 1015.7 |
| 20260505055044 | 51 | 0 | 0.0 | 0.0 | 0.05 | 0.12 | 0.12 | 92 | 1015.8 |
| 20260505054604 | 51 | 0 | 0.0 | 0.0 | 0.05 | 0.11 | 0.11 | 92 | 1015.8 |
| 20260505054041 | 52 | 0 | 0.0 | 0.0 | 0.04 | 0.10 | 0.10 | 92 | 1015.9 |
| 20260505053538 | 52 | 0 | 0.0 | 0.0 | 0.05 | 0.10 | 0.10 | 92 | 1015.9 |
| 20260505053047 | 52 | 0 | 0.0 | 0.0 | 0.06 | 0.10 | 0.10 | 91 | 1015.8 |
| 20260505052538 | 52 | 0 | 0.0 | 0.0 | 0.05 | 0.09 | 0.09 | 91 | 1015.8 |
| 20260505052039 | 52 | 0 | 0.0 | 0.0 | 0.05 | 0.08 | 0.08 | 91 | 1015.8 |
| 20260505051549 | 52 | 0 | 0.0 | 0.0 | 0.05 | 0.08 | 0.08 | 91 | 1015.7 |
| 20260505051038 | 52 | 0 | 0.0 | 0.0 | 0.06 | 0.08 | 0.08 | 91 | 1015.7 |
| 20260505050540 | 52 | 0 | 0.0 | 0.0 | 0.05 | 0.07 | 0.07 | 91 | 1015.7 |
| 20260505041550 | 53 | 0 | 0.0 | 0.0 | 0.03 | 0.03 | 0.03 | 90 | 1016.4 |
| 20260505041041 | 53 | 0 | 0.0 | 0.0 | 0.02 | 0.02 | 0.02 | 90 | 1016.4 |
| 20260505040541 | 53 | 0 | 0.0 | 0.0 | 0.02 | 0.02 | 0.02 | 90 | 1016.3 |
| 20260505040050 | 53 | 0 | 0.0 | 0.0 | 0.01 | 0.01 | 0.01 | 90 | 1016.1 |
| 20260505035541 | 53 | 0 | 0.0 | 0.0 | 0.01 | 0.01 | 0.01 | 90 | 1016.0 |
| 20260505035040 | 53 | 0 | 0.0 | 0.0 | 0.01 | 0.01 | 0.01 | 89 | 1015.9 |
| 20260505034546 | 53 | 0 | 0.0 | 0.0 | 0.01 | 0.01 | 0.01 | 89 | 1015.8 |
| 20260505034040 | 53 | 0 | 0.0 | 0.0 | 0.01 | 0.01 | 0.01 | 89 | 1015.6 |
| 20260505033541 | 53 | 0 | 0.0 | 0.0 | 0.01 | 0.01 | 0.01 | 89 | 1015.5 |
| 20260505033051 | 53 | 0 | 0.0 | 0.0 | 0.01 | 0.01 | 0.01 | 89 | 1015.4 |
| 20260505032541 | 53 | 0 | 0.0 | 0.0 | 0.01 | 0.01 | 0.01 | 89 | 1015.4 |
| 20260505032044 | 53 | 0 | 0.0 | 8.7 | 0.00 | 0.00 | 0.00 | 89 | 1015.3 |
| 20260505031549 | 53 | 0 | 1.7 | 8.7 | 0.00 | 0.00 | 0.00 | 89 | 1015.3 |
| 20260505031041 | 54 | 0 | 0.0 | 6.1 | 0.00 | 0.00 | 0.00 | 89 | 1015.2 |
| 20260505030543 | 54 | 0 | 0.0 | 7.8 | 0.00 | 0.00 | 0.00 | 89 | 1015.3 |
| 20260505030048 | 54 | 304 | 2.6 | 9.6 | 0.00 | 0.00 | 0.00 | 89 | 1015.3 |
| 20260505025541 | 54 | 304 | 4.3 | 9.6 | 0.00 | 0.00 | 0.00 | 89 | 1015.4 |
| 20260505025043 | 54 | 295 | 0.9 | 11.3 | 0.00 | 0.00 | 0.00 | 88 | 1015.3 |
| 20260505024605 | 54 | 298 | 5.2 | 11.3 | 0.00 | 0.00 | 0.00 | 88 | 1015.4 |
| 20260505024044 | 54 | 308 | 3.5 | 10.4 | 0.00 | 0.00 | 0.00 | 88 | 1015.3 |
| 20260505023540 | 54 | 302 | 5.2 | 10.4 | 0.00 | 0.00 | 0.00 | 88 | 1015.4 |
| 20260505023049 | 54 | 0 | 0.0 | 8.7 | 0.00 | 0.00 | 0.00 | 88 | 1015.5 |
| 20260505022537 | 55 | 307 | 2.6 | 8.7 | 0.00 | 0.00 | 0.00 | 88 | 1015.5 |
| 20260505022041 | 55 | 298 | 1.7 | 8.7 | 0.00 | 0.00 | 0.00 | 88 | 1015.5 |
| 20260505021602 | 55 | 0 | 2.6 | 8.7 | 0.00 | 0.00 | 0.00 | 87 | 1015.3 |
| 20260505021041 | 55 | 307 | 4.3 | 8.7 | 0.00 | 0.00 | 0.00 | 87 | 1015.3 |
| 20260505020541 | 55 | 299 | 0.0 | 7.8 | 0.00 | 0.00 | 0.00 | 87 | 1015.3 |
| 20260505020049 | 55 | 0 | 0.0 | 0.0 | 0.00 | 0.00 | 0.00 | 86 | 1015.2 |
| 20260505015538 | 55 | 0 | 0.0 | 11.3 | 0.00 | 0.00 | 0.00 | 86 | 1015.3 |
| 20260505015041 | 56 | 0 | 4.3 | 11.3 | 0.00 | 0.00 | 0.00 | 85 | 1015.4 |
| 20260505014546 | 56 | 304 | 4.3 | 10.4 | 0.00 | 0.00 | 0.00 | 84 | 1015.4 |
| 20260505014041 | 56 | 307 | 2.6 | 10.4 | 0.00 | 0.00 | 0.00 | 84 | 1015.6 |
| 20260505013542 | 56 | 310 | 4.3 | 10.4 | 0.00 | 0.00 | 0.00 | 83 | 1015.6 |
| 20260505013050 | 56 | 302 | 0.0 | 9.6 | 0.00 | 0.00 | 0.00 | 82 | 1015.6 |
| 20260505012541 | 57 | 309 | 4.3 | 8.7 | 0.00 | 0.00 | 0.00 | 81 | 1015.7 |
| 20260505012041 | 57 | 0 | 0.0 | 8.7 | 0.00 | 0.00 | 0.00 | 80 | 1015.6 |
| 20260505011554 | 57 | 293 | 2.6 | 9.6 | 0.00 | 0.00 | 0.00 | 79 | 1015.7 |
| 20260505011041 | 57 | 298 | 5.2 | 9.6 | 0.00 | 0.00 | 0.00 | 79 | 1015.6 |
| 20260505010540 | 57 | 304 | 5.2 | 11.3 | 0.00 | 0.00 | 0.00 | 78 | 1015.7 |
| 20260505010049 | 57 | 0 | 3.5 | 11.3 | 0.00 | 0.00 | 0.00 | 77 | 1015.6 |
| 20260505005537 | 57 | 297 | 4.3 | 8.7 | 0.00 | 0.00 | 0.00 | 77 | 1015.6 |
| 20260505005038 | 58 | 242 | 4.3 | 10.4 | 0.00 | 0.00 | 0.00 | 77 | 1015.6 |
| 20260505004549 | 58 | 0 | 0.9 | 10.4 | 0.00 | 0.00 | 0.00 | 75 | 1015.5 |
| 20260505004040 | 58 | 300 | 3.5 | 13.9 | 0.00 | 0.00 | 0.00 | 75 | 1015.5 |
| 20260505003541 | 58 | 0 | 5.2 | 13.9 | 0.00 | 0.00 | 0.00 | 73 | 1015.6 |
| 20260505003046 | 58 | 291 | 7.8 | 13.9 | 0.00 | 0.00 | 0.00 | 71 | 1015.7 |
| 20260505002540 | 58 | 300 | 1.7 | 12.2 | 0.00 | 0.00 | 0.00 | 71 | 1015.6 |
| 20260505002037 | 59 | 297 | 2.6 | 12.2 | 0.00 | 0.00 | 0.00 | 73 | 1015.7 |
| 20260505001546 | 59 | 304 | 1.7 | 8.7 | 0.00 | 0.00 | 0.00 | 73 | 1015.6 |
| 20260505001041 | 59 | 0 | 0.0 | 0.9 | 0.00 | 0.00 | 0.00 | 74 | 1015.6 |
| 20260505000541 | 59 | 0 | 0.0 | 0.9 | 0.00 | 0.00 | 0.00 | 73 | 1015.6 |
| 20260505000051 | 59 | 0 | 0.0 | 6.1 | 0.00 | 0.00 | 0.00 | 73 | 1015.6 |
| 20260504235541 | 60 | 0 | 0.0 | 7.0 | 0.00 | 0.00 | 0.00 | 72 | 1015.7 |
| 20260504235042 | 60 | 0 | 1.7 | 8.7 | 0.00 | 0.00 | 0.00 | 72 | 1015.6 |
| 20260504234548 | 60 | 0 | 2.6 | 8.7 | 0.00 | 0.00 | 0.00 | 71 | 1015.6 |
| 20260504234042 | 60 | 0 | 0.0 | 6.1 | 0.00 | 0.00 | 0.00 | 72 | 1015.5 |
| 20260504233541 | 60 | 0 | 0.0 | 7.0 | 0.00 | 0.00 | 0.00 | 73 | 1015.4 |
| 20260504233057 | 60 | 0 | 0.9 | 7.0 | 0.00 | 0.00 | 0.00 | 74 | 1015.4 |
| 20260504232542 | 60 | 297 | 0.0 | 4.3 | 0.00 | 0.00 | 0.00 | 75 | 1015.5 |
| 20260504232041 | 61 | 0 | 0.0 | 4.3 | 0.00 | 0.00 | 0.00 | 76 | 1015.4 |
| 20260504231547 | 61 | 166 | 0.0 | 0.0 | 0.00 | 0.00 | 0.00 | 76 | 1015.4 |
| 20260504231041 | 61 | 0 | 0.0 | 0.0 | 0.00 | 0.00 | 0.00 | 76 | 1015.4 |
| 20260504230540 | 61 | 0 | 0.0 | 0.0 | 0.00 | 0.00 | 0.00 | 75 | 1015.4 |
| 20260504230046 | 61 | 0 | 0.0 | 0.0 | 0.00 | 0.00 | 0.00 | 75 | 1015.4 |
| 20260504225540 | 61 | 0 | 0.0 | 0.0 | 0.00 | 0.00 | 0.00 | 74 | 1015.2 |
| 20260504225040 | 61 | 0 | 0.0 | 0.0 | 0.00 | 0.00 | 0.00 | 73 | 1015.2 |
| 20260504224546 | 62 | 0 | 0.0 | 0.0 | 0.00 | 0.00 | 0.00 | 73 | 1015.3 |
| 20260504224045 | 62 | 0 | 0.0 | 0.0 | 0.00 | 0.00 | 0.00 | 72 | 1015.4 |
| 20260504223541 | 63 | 0 | 0.0 | 0.0 | 0.00 | 0.00 | 0.00 | 71 | 1015.5 |
| 20260504223102 | 63 | 0 | 0.0 | 0.0 | 0.00 | 0.00 | 0.00 | 70 | 1015.5 |
| 20260504222541 | 63 | 0 | 0.0 | 0.0 | 0.00 | 0.00 | 0.00 | 69 | 1015.5 |
| 20260504222042 | 63 | 0 | 0.0 | 0.0 | 0.00 | 0.00 | 0.00 | 67 | 1015.5 |
| 20260504221604 | 63 | 0 | 0.0 | 0.0 | 0.00 | 0.00 | 0.00 | 66 | 1015.7 |
| 20260504221040 | 63 | 0 | 0.0 | 0.0 | 0.00 | 0.00 | 0.00 | 67 | 1015.7 |
| 20260504220540 | 63 | 0 | 0.0 | 0.0 | 0.00 | 0.00 | 0.00 | 69 | 1015.5 |
| 20260504220122 | 63 | 0 | 0.0 | 0.0 | 0.00 | 0.00 | 0.00 | 69 | 1015.6 |
| 20260504215542 | 63 | 0 | 0.0 | 0.0 | 0.00 | 0.00 | 0.00 | 69 | 1015.6 |
| 20260504215040 | 63 | 0 | 0.0 | 6.1 | 0.00 | 0.00 | 0.00 | 70 | 1015.6 |
| 20260504214551 | 63 | 0 | 0.0 | 6.1 | 0.00 | 0.00 | 0.00 | 71 | 1015.7 |
| 20260504214040 | 62 | 0 | 0.0 | 6.1 | 0.00 | 0.00 | 0.00 | 71 | 1015.6 |
| 20260504213541 | 62 | 0 | 0.9 | 7.8 | 0.00 | 0.00 | 0.00 | 72 | 1015.7 |
| 20260504213122 | 62 | 120 | 2.6 | 7.8 | 0.00 | 0.00 | 0.00 | 71 | 1015.6 |
| 20260504212542 | 62 | 0 | 1.7 | 8.7 | 0.00 | 0.00 | 0.00 | 72 | 1015.7 |
| 20260504212040 | 62 | 0 | 0.0 | 8.7 | 0.00 | 0.00 | 0.00 | 72 | 1015.7 |
| 20260504211550 | 62 | 232 | 0.0 | 0.0 | 0.00 | 0.00 | 0.00 | 72 | 1015.7 |
| 20260504211040 | 62 | 0 | 0.0 | 5.2 | 0.00 | 0.00 | 0.00 | 71 | 1015.7 |
| 20260504210541 | 62 | 0 | 0.0 | 10.4 | 0.00 | 0.00 | 0.00 | 71 | 1015.7 |
| 20260504210059 | 62 | 171 | 0.9 | 10.4 | 0.00 | 0.00 | 0.00 | 72 | 1015.6 |
| 20260504205541 | 62 | 0 | 2.6 | 10.4 | 0.00 | 0.00 | 0.00 | 70 | 1015.6 |
| 20260504205040 | 63 | 0 | 0.0 | 4.3 | 0.00 | 0.00 | 0.00 | 70 | 1015.7 |
| 20260504204601 | 63 | 0 | 0.0 | 7.8 | 0.00 | 0.00 | 0.00 | 69 | 1015.9 |
| 20260504204040 | 63 | 0 | 0.9 | 7.8 | 0.00 | 0.00 | 0.00 | 69 | 1015.9 |
| 20260504203542 | 63 | 0 | 0.0 | 8.7 | 0.00 | 0.00 | 0.00 | 69 | 1015.8 |
| 20260504203048 | 63 | 0 | 0.0 | 8.7 | 0.00 | 0.00 | 0.00 | 68 | 1015.7 |
| 20260504202540 | 64 | 0 | 0.0 | 8.7 | 0.00 | 0.00 | 0.00 | 68 | 1015.7 |
| 20260504202044 | 64 | 0 | 0.0 | 0.0 | 0.00 | 0.00 | 0.00 | 68 | 1015.5 |
| 20260504201544 | 63 | 0 | 0.0 | 7.8 | 0.00 | 0.00 | 0.00 | 68 | 1015.6 |
| 20260504201040 | 64 | 0 | 0.0 | 7.8 | 0.00 | 0.00 | 0.00 | 68 | 1015.6 |
| 20260504200546 | 64 | 0 | 0.0 | 7.0 | 0.00 | 0.00 | 0.00 | 67 | 1015.6 |
| 20260504195540 | 64 | 0 | 0.0 | 7.8 | 0.00 | 0.00 | 0.00 | 68 | 1015.7 |
| 20260504195041 | 63 | 0 | 0.0 | 8.7 | 0.00 | 0.00 | 0.00 | 68 | 1015.8 |
| 20260504194548 | 63 | 186 | 0.0 | 8.7 | 0.00 | 0.00 | 0.00 | 68 | 1015.9 |
| 20260504194041 | 63 | 0 | 0.0 | 7.0 | 0.00 | 0.00 | 0.00 | 68 | 1015.9 |
| 20260504193541 | 63 | 0 | 0.0 | 7.0 | 0.00 | 0.00 | 0.00 | 69 | 1015.8 |
| 20260504193048 | 63 | 201 | 0.0 | 7.0 | 0.00 | 0.00 | 0.00 | 70 | 1015.8 |
| 20260504192540 | 63 | 0 | 0.9 | 7.0 | 0.00 | 0.00 | 0.00 | 72 | 1015.8 |
| 20260504192041 | 62 | 0 | 0.0 | 5.2 | 0.00 | 0.00 | 0.00 | 72 | 1015.8 |
| 20260504191552 | 62 | 0 | 0.0 | 0.0 | 0.00 | 0.00 | 0.00 | 72 | 1015.8 |
| 20260504191041 | 62 | 0 | 0.0 | 4.3 | 0.00 | 0.00 | 0.00 | 72 | 1015.8 |
| 20260504190540 | 62 | 0 | 0.0 | 4.3 | 0.00 | 0.00 | 0.00 | 73 | 1015.9 |
| 20260504190048 | 62 | 0 | 0.0 | 0.0 | 0.00 | 0.00 | 0.00 | 74 | 1016.0 |
| 20260504185541 | 62 | 0 | 0.0 | 0.0 | 0.00 | 0.00 | 0.00 | 75 | 1016.1 |
| 20260504185041 | 61 | 0 | 0.0 | 0.0 | 0.00 | 0.00 | 0.00 | 75 | 1016.1 |
| 20260504184558 | 61 | 0 | 0.0 | 0.0 | 0.00 | 0.00 | 0.00 | 76 | 1016.0 |